Date String (YYYY-MM-DD hh:mm:ss) UTC,Instrument flags,Ambient pressure (hPa),Sample flow (lpm),Bypass flow (lpm),Sample temperature (°C),Ambient temperature (°C),ASC tube jacket temperature (°C),LED temperature (°C),Box temperature (°C),Sample RH (%),Span deviation,Mass concentration (μg/m³),Mass concentration (μg/m³),Mass concentration (μg/m³)
DateTimeUTC,F1_M11,P_M11,Q1_M11,Q2_M11,T1_M11,T2_M11,T3_M11,T4_M11,T5_M11,U1_M11,ZSPAN_M11,X2_M11,X0_M11,X1_M11
2022-08-27 04:00:00,,0827.4,4.99,0.00,30.1,27.0,00.0,38.8,31.9,26.6,0000.0,0003.77,0007.57,0003.43
2022-08-27 04:01:00,,0827.4,5.01,0.00,30.1,27.2,00.0,38.8,31.8,26.7,0000.0,0003.79,0007.44,0003.43
2022-08-27 04:02:00,,0827.4,5.00,0.00,30.0,27.5,00.0,38.8,31.7,26.8,0000.0,0003.81,0007.67,0003.44
2022-08-27 04:03:00,,0827.4,5.00,0.00,30.0,27.8,00.0,38.7,31.7,26.8,0000.0,0003.81,0007.75,0003.44
2022-08-27 04:04:00,,0827.4,5.00,0.00,30.0,28.1,00.0,38.7,31.7,26.9,0000.0,0003.82,0007.70,0003.44
2022-08-27 04:05:00,,0827.4,4.99,0.00,30.0,28.3,00.0,38.8,31.7,26.9,0000.0,0003.82,0007.54,0003.44
2022-08-27 04:06:00,,0827.4,5.00,0.00,30.0,28.4,00.0,38.8,31.7,26.8,0000.0,0003.83,0007.61,0003.44
2022-08-27 04:07:00,,0827.4,5.01,0.00,30.0,28.6,00.0,38.8,31.8,26.7,0000.0,0003.80,0007.57,0003.44
2022-08-27 04:08:00,,0827.4,4.99,0.00,30.0,28.7,00.0,38.8,31.8,26.7,0000.0,0003.78,0007.52,0003.44
2022-08-27 04:09:00,,0827.4,5.00,0.00,30.0,28.8,00.0,38.8,31.9,26.8,0000.0,0003.77,0006.95,0003.44
2022-08-27 04:10:00,,0827.4,5.00,0.00,30.0,28.8,00.0,38.8,31.9,26.7,0000.0,0003.80,0006.66,0003.45
2022-08-27 04:11:00,,0827.4,5.00,0.00,30.0,28.9,00.0,38.8,31.9,26.6,0000.0,0003.80,0006.62,0003.45
2022-08-27 04:12:00,,0827.3,5.00,0.00,30.1,29.0,00.0,38.8,31.9,26.6,0000.0,0003.80,0006.53,0003.46
2022-08-27 04:13:00,,0827.2,5.00,0.00,30.1,29.0,00.0,38.8,32.0,26.5,0000.0,0003.79,0006.06,0003.47
2022-08-27 04:14:00,,0827.2,5.00,0.00,30.1,29.0,00.0,38.8,32.0,26.3,0000.0,0003.79,0005.76,0003.47
2022-08-27 04:15:00,,0827.2,5.00,0.00,30.1,29.1,00.0,38.8,32.0,26.3,0000.0,0003.81,0005.81,0003.47
2022-08-27 04:16:00,,0827.2,5.00,0.00,30.1,29.1,00.0,38.9,32.0,26.3,0000.0,0003.84,0005.92,0003.47
2022-08-27 04:17:00,,0827.2,5.00,0.00,30.2,29.2,00.0,38.9,32.1,26.2,0000.0,0003.85,0005.90,0003.47
2022-08-27 04:18:00,,0827.1,5.00,0.00,30.2,29.2,00.0,38.9,32.1,26.1,0000.0,0003.89,0006.12,0003.47
2022-08-27 04:19:00,,0827.2,4.99,0.00,30.2,28.8,00.0,38.9,32.1,26.1,0000.0,0003.92,0006.31,0003.47
2022-08-27 04:20:00,,0827.1,5.00,0.00,30.2,27.5,00.0,38.9,32.0,26.1,0000.0,0003.94,0006.46,0003.48
2022-08-27 04:21:00,,0827.1,5.01,0.00,30.2,27.0,00.0,38.8,31.9,26.2,0000.0,0003.94,0006.61,0003.47
2022-08-27 04:22:00,,0827.1,4.99,0.00,30.1,27.1,00.0,38.8,31.7,26.3,0000.0,0003.98,0006.84,0003.47
2022-08-27 04:23:00,,0827.1,5.00,0.00,30.0,27.4,00.0,38.8,31.7,26.4,0000.0,0003.97,0006.86,0003.47
2022-08-27 04:24:00,,0827.2,5.00,0.00,30.0,27.7,00.0,38.8,31.7,26.5,0000.0,0003.96,0006.82,0003.46
2022-08-27 04:25:00,,0827.1,4.99,0.00,30.0,27.9,00.0,38.7,31.7,26.5,0000.0,0003.96,0006.81,0003.47
2022-08-27 04:26:00,,0827.2,5.00,0.00,29.9,28.1,00.0,38.7,31.7,26.5,0000.0,0003.94,0006.68,0003.48
2022-08-27 04:27:00,,0827.2,5.00,0.00,29.9,28.3,00.0,38.7,31.7,26.5,0000.0,0003.93,0006.76,0003.49
2022-08-27 04:28:00,,0827.1,4.99,0.00,30.0,28.5,00.0,38.7,31.7,26.5,0000.0,0003.93,0006.91,0003.49
2022-08-27 04:29:00,,0827.2,5.00,0.00,30.0,28.6,00.0,38.7,31.8,26.4,0000.0,0003.90,0006.75,0003.51
2022-08-27 04:30:00,,0827.2,5.01,0.00,30.0,28.7,00.0,38.7,31.8,26.4,0000.0,0003.88,0006.55,0003.51
2022-08-27 04:31:00,,0827.1,5.00,0.00,30.0,28.7,00.0,38.7,31.8,26.8,0000.0,0003.88,0006.50,0003.52
2022-08-27 04:32:00,,0827.2,5.00,0.00,30.0,28.8,00.0,38.8,31.9,27.4,0000.0,0003.88,0006.53,0003.53
2022-08-27 04:33:00,,0827.2,5.00,0.00,30.0,28.9,00.0,38.8,31.9,27.9,0000.0,0003.89,0006.80,0003.56
2022-08-27 04:34:00,,0827.2,4.99,0.00,30.0,28.9,00.0,38.8,31.9,28.0,0000.0,0004.00,0008.08,0003.60
2022-08-27 04:35:00,,0827.2,5.00,0.00,30.1,29.0,00.0,38.8,31.9,27.9,0000.0,0004.09,0008.70,0003.64
2022-08-27 04:36:00,,0827.1,5.00,0.00,30.1,29.0,00.0,38.8,32.0,27.9,0000.0,0004.17,0008.99,0003.67
2022-08-27 04:37:00,,0827.1,5.00,0.00,30.1,29.0,00.0,38.8,32.0,28.1,0000.0,0004.27,0009.51,0003.69
2022-08-27 04:38:00,,0827.1,5.00,0.00,30.1,29.1,00.0,38.8,32.0,27.6,0000.0,0004.35,0009.83,0003.72
2022-08-27 04:39:00,,0827.2,5.00,0.00,30.1,29.1,00.0,38.9,32.0,26.8,0000.0,0004.43,0009.87,0003.75
2022-08-27 04:40:00,,0827.0,5.00,0.00,30.2,29.1,00.0,38.9,32.0,27.2,0000.0,0004.51,0010.41,0003.78
2022-08-27 04:41:00,,0827.0,5.00,0.00,30.2,29.2,00.0,38.9,32.1,27.6,0000.0,0004.60,0010.96,0003.81
2022-08-27 04:42:00,,0827.2,5.00,0.00,30.2,29.2,00.0,38.9,32.1,27.9,0000.0,0004.70,0011.23,0003.83
2022-08-27 04:43:00,,0827.1,5.01,0.00,30.2,29.2,00.0,38.9,32.1,27.8,0000.0,0004.77,0011.58,0003.85
2022-08-27 04:44:00,,0826.9,4.99,0.00,30.3,28.9,00.0,39.0,32.1,27.6,0000.0,0004.78,0011.61,0003.86
2022-08-27 04:45:00,,0826.9,5.01,0.00,30.2,27.6,00.0,38.9,32.0,27.7,0000.0,0004.76,0010.97,0003.87
2022-08-27 04:46:00,,0826.9,5.00,0.00,30.2,27.0,00.0,38.9,32.0,27.3,0000.0,0004.77,0010.80,0003.88
2022-08-27 04:47:00,,0826.9,5.01,0.00,30.1,27.0,00.0,38.8,31.8,27.6,0000.0,0004.75,0010.65,0003.87
2022-08-27 04:48:00,,0827.0,5.00,0.00,30.0,27.3,00.0,38.8,31.7,27.6,0000.0,0004.75,0010.39,0003.87
2022-08-27 04:49:00,,0827.2,4.99,0.00,30.0,27.6,00.0,38.8,31.7,27.6,0000.0,0004.73,0010.56,0003.86
2022-08-27 04:50:00,,0827.0,5.00,0.00,30.0,27.9,00.0,38.8,31.7,27.2,0000.0,0004.69,0010.48,0003.86
2022-08-27 04:51:00,,0826.9,5.00,0.00,30.0,28.1,00.0,38.8,31.7,27.2,0000.0,0004.70,0010.15,0003.86
2022-08-27 04:52:00,,0826.8,5.00,0.00,30.0,28.3,00.0,38.8,31.7,27.4,0000.0,0004.69,0009.77,0003.86
2022-08-27 04:53:00,,0826.8,4.99,0.00,30.0,28.4,00.0,38.8,31.8,27.3,0000.0,0004.68,0009.87,0003.86
2022-08-27 04:54:00,,0826.8,5.00,0.00,30.0,28.5,00.0,38.8,31.8,27.4,0000.0,0004.70,0009.87,0003.86
2022-08-27 04:55:00,,0826.7,5.00,0.00,30.0,28.6,00.0,38.8,31.8,27.4,0000.0,0004.72,0009.74,0003.84
2022-08-27 04:56:00,,0826.8,4.99,0.00,30.0,28.7,00.0,38.8,31.8,27.6,0000.0,0004.74,0009.74,0003.82
2022-08-27 04:57:00,,0826.7,4.99,0.00,30.0,28.8,00.0,38.8,31.9,27.6,0000.0,0004.74,0009.63,0003.80
2022-08-27 04:58:00,,0826.7,5.00,0.00,30.0,28.8,00.0,38.8,31.9,27.5,0000.0,0004.74,0010.05,0003.78
2022-08-27 04:59:00,,0826.7,5.01,0.00,30.0,28.9,00.0,38.8,31.9,27.4,0000.0,0004.73,0010.44,0003.76
